Weather History for Jasper, TX

Change the Weather History Date:

Sunday, March 2, 2014

  Actual Average (KLFK) Record (KLFK)
Temperature  
Mean Temperature 57 °F 56 °F  
Max Temperature 76 °F 68 °F 87 °F (1946)
Min Temperature 38 °F 45 °F 18 °F (1980)
Degree Days  
Heating Degree Days 8 10  
Month to date heating degree days 20  
Since 1 July heating degree days 1654  
Cooling Degree Days 0 1  
Month to date cooling degree days 2  
Year to date cooling degree days 21  
Growing Degree Days 7 (Base 50)    
Moisture  
Dew Point 60 °F    
Average Humidity 86    
Maximum Humidity 95    
Minimum Humidity 70    
Precipitation  
Precipitation 0.03 in 0.14 in 2.42 in (1934)
Month to date precipitation 0.27  
Year to date precipitation 8.32  
Snow  
Snow 0.00 in - - ()
Month to date snowfall  
Since 1 July snowfall  
Snow Depth -    
Sea Level Pressure  
Sea Level Pressure 30.03 in    
Wind  
Wind Speed 6 mph (SSE)    
Max Wind Speed 21 mph    
Max Gust Speed 30 mph    
Visibility 9 miles    
Events Rain    
T = Trace of Precipitation, MM = Missing Value Source: NWS Daily Summary

Daily Weather History Graph

Daily Weather History Graph

Search for Another Location

Airport:

Trip Planner

Search our weather history database for the weather conditions in past years. The results will help you decide how hot, cold, wet, or windy it might be!

Date:

Astronomy

Mar. 02, 2014 Rise Set
Actual Time 6:41 AM CST 6:15 PM CST
Civil Twilight 6:17 AM CST 6:39 PM CST
Nautical Twilight 5:49 AM CST 7:07 PM CST
Astronomical Twilight 5:21 AM CST 7:35 PM CST
Moon 7:21 AM CST (3/2) 8:01 PM CST (3/2)
Length of Visible Light 12h 22m
Length of Day
11h 33m
Waxing Crescent, 3% of the Moon is Illuminated
Mar 2
Waxing Crescent
Mar 8
First Quarter
Mar 16
Full
Mar 23
Last Quarter
Mar 30
New

Hourly Weather History & Observations

Time (CST) Temp. Windchill Dew Point Humidity Pressure Visibility Wind Dir Wind Speed Gust Speed Precip Events Conditions
12:15 AM 67.6 °F - 64.6 °F 90% 30.05 in 10.0 mi SSE 4.6 mph - N/A   Overcast
12:40 AM 67.5 °F - 64.6 °F 90% 30.05 in 10.0 mi South 3.5 mph - N/A   Overcast
12:55 AM 67.5 °F - 64.6 °F 90% 30.06 in 10.0 mi South 4.6 mph - N/A   Overcast
1:15 AM 67.5 °F - 64.6 °F 90% 30.05 in 10.0 mi SSE 3.5 mph - N/A   Overcast
1:35 AM 67.3 °F - 64.4 °F 90% 30.05 in 10.0 mi South 3.5 mph - N/A   Overcast
1:55 AM 67.3 °F - 64.4 °F 90% 30.04 in 10.0 mi SSE 3.5 mph - N/A   Overcast
2:15 AM 67.1 °F - 64.2 °F 90% 30.03 in 10.0 mi SSE 4.6 mph - N/A   Overcast
2:35 AM 67.1 °F - 64.0 °F 90% 30.03 in 10.0 mi SSE 3.5 mph - N/A   Overcast
2:55 AM 67.3 °F - 63.7 °F 88% 30.03 in 10.0 mi SSE 3.5 mph - N/A   Overcast
3:15 AM 67.1 °F - 63.5 °F 88% 30.03 in 10.0 mi SSE 4.6 mph - N/A   Overcast
3:35 AM 67.3 °F - 62.8 °F 85% 30.02 in 10.0 mi SE 4.6 mph - N/A   Overcast
3:55 AM 67.1 °F - 62.6 °F 85% 30.02 in 10.0 mi SSE 3.5 mph - N/A   Overcast
4:15 AM 67.1 °F - 62.4 °F 85% 30.01 in 10.0 mi South 4.6 mph - N/A   Overcast
4:35 AM 67.1 °F - 62.6 °F 85% 30.01 in 10.0 mi SSE 4.6 mph - N/A   Overcast
4:55 AM 66.9 °F - 62.8 °F 87% 30.02 in 10.0 mi SSE 4.6 mph - N/A   Overcast
5:15 AM 66.7 °F - 63.3 °F 89% 30.02 in 10.0 mi South 4.6 mph - N/A   Overcast
5:35 AM 66.7 °F - 63.7 °F 90% 30.02 in 10.0 mi SE 3.5 mph - N/A   Overcast
5:55 AM 66.7 °F - 63.9 °F 90% 30.02 in 10.0 mi SE 3.5 mph - N/A   Overcast
6:15 AM 66.6 °F - 63.9 °F 91% 30.03 in 10.0 mi SE 3.5 mph - N/A   Overcast
6:35 AM 66.7 °F - 64.0 °F 91% 30.03 in 10.0 mi SE 4.6 mph - N/A   Overcast
6:55 AM 66.7 °F - 64.0 °F 91% 30.04 in 10.0 mi ESE 3.5 mph - N/A   Overcast
7:15 AM 66.6 °F - 64.0 °F 92% 30.06 in 10.0 mi Calm Calm - N/A   Overcast
7:35 AM 66.6 °F - 64.0 °F 92% 30.06 in 10.0 mi ESE 3.5 mph - N/A   Overcast
7:55 AM 66.4 °F - 64.2 °F 93% 30.07 in 10.0 mi Calm Calm - N/A   Overcast
8:15 AM 66.6 °F - 64.4 °F 93% 30.07 in 10.0 mi Calm Calm - N/A   Overcast
8:35 AM 66.7 °F - 64.4 °F 92% 30.08 in 10.0 mi ESE 3.5 mph - N/A   Overcast
8:55 AM 66.9 °F - 64.4 °F 92% 30.08 in 7.0 mi ESE 6.9 mph - N/A   Overcast
9:15 AM 67.3 °F - 64.8 °F 92% 30.09 in 7.0 mi ESE 5.8 mph - N/A   Overcast
9:35 AM 67.8 °F - 65.1 °F 91% 30.08 in 10.0 mi ESE 4.6 mph - N/A   Overcast
9:55 AM 68.7 °F - 65.7 °F 90% 30.08 in 10.0 mi SE 4.6 mph - N/A   Overcast
10:15 AM 69.4 °F - 66.2 °F 89% 30.07 in 7.0 mi ESE 3.5 mph - N/A   Overcast
10:35 AM 70.2 °F - 66.4 °F 88% 30.07 in 7.0 mi SE 4.6 mph - N/A   Overcast
10:55 AM 70.5 °F - 66.7 °F 88% 30.07 in 10.0 mi SE 4.6 mph - N/A   Overcast
11:15 AM 71.2 °F - 67.1 °F 87% 30.06 in 7.0 mi SSE 8.1 mph - N/A   Overcast
11:35 AM 71.8 °F - 67.3 °F 86% 30.05 in 7.0 mi South 5.8 mph - N/A   Overcast
11:55 AM 72.5 °F - 67.5 °F 84% 30.04 in 10.0 mi SE 4.6 mph 9.2 mph N/A   Overcast
12:15 PM 73.4 °F - 67.8 °F 83% 30.03 in 10.0 mi South 5.8 mph - N/A   Overcast
12:35 PM 74.1 °F - 68.0 °F 81% 30.01 in 10.0 mi SSE 4.6 mph - N/A   Overcast
12:55 PM 75.9 °F - 68.2 °F 77% 30.00 in 10.0 mi SSE 10.4 mph 17.3 mph N/A   Overcast
1:15 PM 76.1 °F - 67.8 °F 75% 29.99 in 10.0 mi South 11.5 mph 17.3 mph N/A   Overcast
1:35 PM 76.8 °F - 67.1 °F 72% 29.99 in 10.0 mi South 13.8 mph 23.0 mph N/A   Overcast
1:55 PM 76.5 °F - 66.4 °F 71% 29.98 in 10.0 mi South 17.3 mph 23.0 mph N/A   Overcast
2:15 PM 75.7 °F - 66.2 °F 72% 29.97 in 10.0 mi South 16.1 mph 24.2 mph N/A   Overcast
2:35 PM 75.6 °F - 66.4 °F 73% 29.97 in 10.0 mi South 11.5 mph 17.3 mph N/A   Overcast
2:55 PM 76.1 °F - 66.2 °F 71% 29.95 in 10.0 mi South 13.8 mph 20.7 mph N/A   Mostly Cloudy
3:15 PM 76.3 °F - 66.0 °F 70% 29.94 in 10.0 mi South 10.4 mph 16.1 mph N/A   Scattered Clouds
3:35 PM 75.7 °F - 65.8 °F 71% 29.94 in 10.0 mi South 12.7 mph - N/A   Mostly Cloudy
3:55 PM 75.4 °F - 65.8 °F 72% 29.94 in 10.0 mi South 11.5 mph 17.3 mph N/A   Overcast
4:15 PM 75.4 °F - 66.0 °F 73% 29.95 in 10.0 mi South 10.4 mph - N/A   Overcast
4:35 PM 75.4 °F - 66.0 °F 73% 29.94 in 10.0 mi South 8.1 mph - N/A   Overcast
4:55 PM 75.2 °F - 65.5 °F 72% 29.94 in 10.0 mi South 10.4 mph - N/A   Overcast
5:15 PM 75.0 °F - 65.8 °F 73% 29.93 in 10.0 mi South 12.7 mph 18.4 mph N/A   Mostly Cloudy
5:35 PM 74.3 °F - 66.4 °F 76% 29.93 in 10.0 mi SSE 6.9 mph - N/A   Mostly Cloudy
5:55 PM 73.6 °F - 66.9 °F 80% 29.92 in 10.0 mi SSE 6.9 mph 16.1 mph N/A   Mostly Cloudy
6:15 PM 72.9 °F - 67.1 °F 82% 29.93 in 10.0 mi South 6.9 mph - N/A   Mostly Cloudy
6:35 PM 72.3 °F - 67.1 °F 84% 29.95 in 10.0 mi West 16.1 mph 26.5 mph N/A   Overcast
6:55 PM 60.6 °F - 55.6 °F 83% 29.99 in 10.0 mi WNW 17.3 mph 29.9 mph 0.01 in Rain Heavy Rain
7:15 PM 50.0 °F - 47.8 °F 92% 30.03 in 7.0 mi WNW 20.7 mph 27.6 mph 0.01 in Rain Rain
7:35 PM 45.5 °F 39.2 °F 44.2 °F 95% 30.05 in 10.0 mi WNW 13.8 mph 26.5 mph 0.01 in   Overcast
7:55 PM 43.5 °F 36.4 °F 42.3 °F 95% 30.07 in 7.0 mi NW 15.0 mph 23.0 mph 0.01 in Rain Rain
8:15 PM 42.1 °F 33.9 °F 40.8 °F 95% 30.09 in 7.0 mi WNW 17.3 mph 26.5 mph 0.01 in Rain Light Rain
8:35 PM 40.1 °F 31.3 °F 38.8 °F 95% 30.11 in 4.0 mi NW 17.3 mph 25.3 mph 0.01 in   Overcast
8:55 PM 38.8 °F 32.1 °F 37.6 °F 95% 30.12 in 10.0 mi NW 10.4 mph 20.7 mph 0.01 in   Overcast
9:15 PM 38.7 °F 32.4 °F 37.4 °F 95% 30.12 in 7.0 mi NW 9.2 mph - N/A   Overcast
9:35 PM 39.0 °F 31.0 °F 37.2 °F 93% 30.11 in 10.0 mi NW 13.8 mph 19.6 mph N/A   Overcast
9:55 PM 39.2 °F 32.5 °F 37.2 °F 93% 30.11 in 4.0 mi NW 10.4 mph - N/A Rain Light Rain
10:15 PM 39.2 °F 32.0 °F 37.8 °F 95% 30.12 in 5.0 mi NW 11.5 mph 19.6 mph N/A   Light Drizzle
10:35 PM 39.2 °F 33.0 °F 37.8 °F 95% 30.13 in 10.0 mi NW 9.2 mph 16.1 mph N/A Rain Light Rain
11:00 PM 39.2 °F 31.6 °F 37.6 °F 94% 30.13 in 10.0 mi NW 12.7 mph 20.7 mph N/A   Overcast
11:15 PM 39.2 °F 31.6 °F 37.4 °F 93% 30.13 in 10.0 mi NNW 12.7 mph 17.3 mph N/A   Overcast
11:35 PM 39.2 °F 30.8 °F 37.4 °F 93% 30.13 in 10.0 mi NNW 15.0 mph 20.7 mph N/A   Overcast
11:55 PM 39.2 °F 32.5 °F 37.6 °F 94% 30.14 in 10.0 mi NNW 10.4 mph 20.7 mph N/A   Overcast